FW6406 Weather Reports


time (UTC)temp
F
wind
direction
speed
knots
gust
knots
rain 1hr
in
rain 24hr
in
rain mn
in
humidity
%
barometer
mb
20260510164504 52 0 0.0 0.0 0.02 0.04 0.04 67 1016.0
20260510163004 52 0 0.0 0.0 0.03 0.04 0.04 67 1015.8
20260510162504 52 0 0.0 0.0 0.03 0.04 0.04 67 1015.8
20260510162004 52 0 0.0 0.0 0.04 0.04 0.04 68 1015.6
20260510161503 52 0 0.0 0.0 0.04 0.04 0.04 68 1015.5
20260510161004 52 0 0.0 0.0 0.04 0.04 0.04 68 1015.4
20260510160504 52 0 0.0 0.0 0.04 0.04 0.04 68 1015.3
20260510160004 52 0 0.0 0.0 0.03 0.03 0.03 69 1015.3
20260510155004 52 0 0.0 0.0 0.03 0.03 0.03 68 1015.4
20260510154503 53 0 0.0 0.0 0.02 0.02 0.02 68 1015.2
20260510154004 53 0 0.0 0.0 0.02 0.02 0.02 67 1014.8
20260510153504 53 0 0.0 0.0 0.02 0.02 0.02 66 1014.6
20260510152503 55 0 0.0 0.0 0.01 0.01 0.01 65 1014.1
20260510152004 55 0 0.0 0.0 0.00 0.00 0.00 64 1013.9
20260510151003 56 0 0.0 0.0 0.00 0.00 0.00 63 1013.8
20260510150504 56 0 0.0 0.0 0.00 0.00 0.00 62 1013.7
20260510150004 57 0 0.0 0.0 0.00 0.00 0.00 61 1013.6
20260510145504 57 0 0.0 0.0 0.00 0.00 0.00 61 1013.6
20260510145004 57 0 0.0 0.0 0.00 0.00 0.00 62 1013.4
20260510144504 57 0 0.0 0.0 0.00 0.00 0.00 64 1013.3
20260510144004 57 0 0.0 0.0 0.00 0.00 0.00 65 1013.2
20260510143003 56 0 0.0 0.0 0.00 0.00 0.00 66 1013.1
20260510141503 56 0 0.0 0.0 0.00 0.00 0.00 64 1013.2
20260510141004 56 0 0.0 0.0 0.00 0.00 0.00 64 1013.0
20260510140004 57 0 0.0 0.0 0.00 0.00 0.00 63 1012.6
20260510135504 57 0 0.0 0.0 0.00 0.00 0.00 63 1012.6
20260510134504 57 0 0.0 0.0 0.00 0.00 0.00 63 1012.2
20260510133504 57 0 0.0 0.0 0.00 0.00 0.00 64 1012.1
20260510133004 57 0 0.0 0.0 0.00 0.00 0.00 64 1012.0
20260510132004 57 0 0.0 0.0 0.00 0.00 0.00 63 1011.7
20260510130004 57 0 0.0 0.0 0.00 0.00 0.00 62 1010.9
20260510125505 58 0 0.0 0.0 0.00 0.00 0.00 62 1010.7
20260510125004 58 0 0.0 0.0 0.00 0.00 0.00 62 1010.5
20260510123004 60 0 0.0 0.0 0.00 0.00 0.00 62 1009.8
20260510122504 60 0 0.0 0.0 0.00 0.00 0.00 62 1009.7
20260510122004 60 0 0.0 0.0 0.00 0.00 0.00 62 1009.5
20260510121503 60 0 0.0 0.0 0.00 0.00 0.00 62 1009.2
20260510121004 60 0 0.0 0.0 0.00 0.00 0.00 62 1009.2
20260510120004 60 0 0.0 0.0 0.00 0.00 0.00 61 1009.0
20260510114503 60 0 0.0 0.0 0.00 0.00 0.00 60 1008.8
20260510114004 60 0 0.0 0.0 0.00 0.00 0.00 60 1008.8
20260510113504 60 0 0.0 0.0 0.00 0.00 0.00 59 1008.6
20260510113004 61 0 0.0 0.0 0.00 0.00 0.00 59 1008.5
20260510112503 61 0 0.0 0.0 0.00 0.00 0.00 59 1008.3
20260510112004 61 0 0.0 0.0 0.00 0.00 0.00 58 1008.2
20260510111504 61 0 0.0 0.0 0.00 0.00 0.00 57 1008.2
20260510111004 62 0 0.0 0.0 0.00 0.00 0.00 58 1008.2
20260510110504 62 0 0.0 0.0 0.00 0.00 0.00 58 1008.3
20260510110004 62 0 0.0 0.0 0.00 0.00 0.00 59 1008.3
20260510105504 61 0 0.0 0.0 0.00 0.00 0.00 60 1008.3
20260510105004 61 0 0.0 0.0 0.00 0.00 0.00 60 1008.4
20260510104504 61 0 0.0 0.0 0.00 0.00 0.00 61 1008.3
20260510104005 61 0 0.0 0.0 0.00 0.00 0.00 61 1008.3
20260510103504 61 0 0.0 0.0 0.00 0.00 0.00 62 1007.7
20260510103004 60 0 0.0 0.0 0.00 0.00 0.00 62 1008.1
20260510102004 61 0 0.0 0.0 0.00 0.00 0.00 62 1007.6
20260510101504 61 0 0.0 0.0 0.00 0.00 0.00 62 1007.4
20260510101004 61 0 0.0 0.0 0.00 0.00 0.00 62 1007.2
20260510100509 61 0 0.0 0.0 0.00 0.00 0.00 61 1007.2
20260510100004 61 0 0.0 0.0 0.00 0.00 0.00 61 1007.4
20260510095504 61 0 0.0 0.0 0.00 0.00 0.00 61 1007.4
20260510095004 61 0 0.0 0.0 0.00 0.00 0.00 61 1007.6
20260510094504 61 0 0.0 0.0 0.00 0.00 0.00 61 1007.7
20260510094004 61 0 0.0 0.0 0.00 0.00 0.00 61 1007.4
20260510092504 61 0 0.0 0.0 0.00 0.00 0.00 61 1006.4
20260510092004 62 0 0.0 0.0 0.00 0.00 0.00 60 1006.3
20260510091504 62 0 0.0 0.0 0.00 0.00 0.00 60 1006.2
20260510090504 62 0 0.0 0.0 0.00 0.00 0.00 60 1006.0
20260510090004 62 0 0.0 0.0 0.00 0.00 0.00 59 1006.2
20260510085503 62 0 0.0 0.0 0.00 0.00 0.00 59 1006.1
20260510085005 62 0 0.0 0.0 0.00 0.00 0.00 59 1006.0
20260510083504 63 0 0.0 0.0 0.00 0.00 0.00 58 1006.1
20260510083004 63 0 0.0 0.0 0.00 0.00 0.00 57 1006.1
20260510082503 63 0 0.0 0.0 0.00 0.00 0.00 57 1006.1
20260510082004 63 0 0.0 0.0 0.00 0.00 0.00 56 1005.9
20260510081504 63 0 0.0 0.0 0.00 0.00 0.00 56 1005.7
20260510081004 64 0 0.0 0.0 0.00 0.00 0.00 56 1005.6
20260510080504 64 0 0.0 0.0 0.00 0.00 0.00 55 1005.6
20260510075504 64 0 0.0 0.0 0.00 0.00 0.00 54 1005.6
20260510075004 65 0 0.0 0.0 0.00 0.00 0.00 54 1005.3
20260510074504 65 0 0.0 0.0 0.00 0.00 0.00 54 1005.1
20260510073004 66 0 0.0 0.0 0.00 0.00 0.00 54 1004.9
20260510072504 66 0 0.0 0.0 0.00 0.00 0.00 54 1004.8
20260510072004 66 0 0.0 0.0 0.00 0.00 0.00 54 1004.9
20260510071504 66 0 0.0 0.0 0.00 0.00 0.00 54 1005.2
20260510071004 67 0 0.0 0.0 0.00 0.00 0.00 54 1005.1
20260510070504 67 0 0.0 0.0 0.00 0.00 0.00 53 1004.9
20260510070004 67 0 0.0 0.0 0.00 0.00 0.00 53 1004.9
20260510065504 67 0 0.0 0.0 0.00 0.00 0.00 53 1004.9
20260510065004 68 0 0.0 0.0 0.00 0.00 0.00 53 1004.8
20260510064004 68 0 0.0 0.0 0.00 0.00 0.00 53 1004.9
20260510062004 69 358 0.0 0.0 0.00 0.00 0.00 52 1004.5
20260510061504 69 210 0.0 0.0 0.00 0.00 0.00 52 1004.3
20260510060504 69 192 0.0 0.0 0.00 0.00 0.00 51 1004.7
20260510060004 70 192 0.0 0.0 0.00 0.00 0.00 50 1005.2
20260510055504 70 193 0.0 0.0 0.00 0.00 0.00 50 1005.2
20260510055004 70 195 0.0 0.0 0.00 0.00 0.00 48 1005.4
20260510054504 70 192 0.0 0.0 0.00 0.00 0.00 48 1005.2
20260510054004 71 0 0.0 0.0 0.00 0.00 0.00 48 1004.8
20260510053504 71 354 0.0 0.0 0.00 0.00 0.00 47 1004.6
20260510053004 71 210 0.0 0.0 0.00 0.00 0.00 47 1004.5
20260510052504 71 294 0.0 0.0 0.00 0.00 0.00 47 1004.5
20260510052004 71 294 0.0 0.0 0.00 0.00 0.00 46 1004.6
20260510051003 72 208 0.0 0.0 0.00 0.00 0.00 46 1004.4
20260510050504 72 294 0.0 0.0 0.00 0.00 0.00 45 1004.6
20260510050004 72 244 0.0 0.0 0.00 0.00 0.00 45 1004.7
20260510045503 72 201 0.0 0.0 0.00 0.00 0.00 44 1004.4
20260510045004 72 294 0.0 0.0 0.00 0.00 0.00 44 1004.3
20260510044504 72 192 0.0 0.0 0.00 0.00 0.00 44 1004.6
20260510044004 72 192 0.0 0.0 0.00 0.00 0.00 44 1004.3
20260510043004 73 192 0.0 0.0 0.00 0.00 0.00 43 1003.9
20260510041504 74 192 0.0 0.0 0.00 0.00 0.00 40 1004.2
20260510040503 74 192 0.0 0.0 0.00 0.00 0.00 38 1004.1
20260510040004 74 192 0.0 0.0 0.00 0.00 0.00 36 1003.9
20260510035504 74 192 0.0 0.0 0.00 0.00 0.00 31 1004.0
20260510035004 74 192 0.0 0.0 0.00 0.00 0.00 27 1004.0
20260510034004 74 192 0.0 0.0 0.00 0.00 0.00 20 1004.1
20260510033004 75 192 0.0 0.0 0.00 0.00 0.00 16 1004.3
20260510032503 75 192 0.0 0.0 0.00 0.00 0.00 16 1004.4
20260510031504 77 192 0.0 0.0 0.00 0.00 0.00 10 1003.8
20260510031004 77 192 0.0 0.0 0.00 0.00 0.00 7 1003.6
20260510030504 76 192 0.0 0.0 0.00 0.00 0.00 5 1003.3
20260510030004 77 192 0.0 0.0 0.00 0.00 0.00 4 1003.2
20260510025004 79 192 0.0 0.0 0.00 0.00 0.00 3 1002.9
20260510024504 79 192 0.0 0.0 0.00 0.00 0.00 3 1002.6
20260510024005 79 192 0.0 0.0 0.00 0.00 0.00 3 1002.4
20260510023504 79 192 0.0 0.0 0.00 0.00 0.00 3 1002.4
20260510023004 80 192 0.0 0.0 0.00 0.00 0.00 3 1002.2
20260510022504 80 192 0.0 0.0 0.00 0.00 0.00 3 1002.1
20260510022004 80 192 0.0 0.0 0.00 0.00 0.00 3 1002.0
20260510021504 81 192 0.0 0.0 0.00 0.00 0.00 3 1001.9
20260510020504 82 192 0.0 0.0 0.00 0.00 0.00 3 1001.8
20260510020005 82 192 0.0 0.0 0.00 0.00 0.00 3 1001.7
20260510015504 82 192 0.0 0.0 0.00 0.00 0.00 3 1001.7
20260510014004 84 192 0.0 0.0 0.00 0.00 0.00 3 1001.6
20260510013504 84 192 0.0 0.0 0.00 0.00 0.00 3 1001.5
20260510013004 85 192 0.0 0.0 0.00 0.00 0.00 3 1001.4
20260510012504 85 192 0.0 0.0 0.00 0.00 0.00 3 1001.3
20260510012004 86 192 0.0 0.0 0.00 0.00 0.00 3 1001.2
20260510010504 87 192 0.0 0.0 0.00 0.00 0.00 3 1001.1
20260510010004 88 192 0.0 0.0 0.00 0.00 0.00 3 1001.0
20260510005004 88 192 0.0 0.0 0.00 0.00 0.00 3 1001.1
20260510004504 88 192 0.0 0.0 0.00 0.00 0.00 3 1001.1
20260510004004 88 192 0.0 0.0 0.00 0.00 0.00 3 1001.2
20260510003004 89 192 0.0 0.0 0.00 0.00 0.00 3 1001.2
20260510002504 89 192 0.0 0.0 0.00 0.00 0.00 3 1001.1
20260510002004 89 192 0.0 0.0 0.00 0.00 0.00 3 1001.1
20260510001504 89 192 0.0 0.0 0.00 0.00 0.00 3 1001.2
20260510001004 89 192 0.0 0.0 0.00 0.00 0.00 3 1001.3
20260509235504 90 192 0.0 0.0 0.00 0.00 0.00 3 1001.4
20260509235004 89 192 0.0 0.0 0.00 0.00 0.00 3 1001.5
20260509234503 89 192 0.0 0.0 0.00 0.00 0.00 3 1001.5
20260509234005 89 192 0.0 0.0 0.00 0.00 0.00 3 1001.6
20260509233504 89 192 0.0 0.0 0.00 0.00 0.00 3 1001.6
20260509233004 89 192 0.0 0.0 0.00 0.00 0.00 3 1001.6
20260509232503 89 192 0.0 0.0 0.00 0.00 0.00 3 1001.6
20260509232004 89 192 0.0 0.0 0.00 0.00 0.00 3 1001.6
20260509231504 89 192 0.0 0.0 0.00 0.00 0.00 3 1001.7
20260509230504 89 192 0.0 0.0 0.00 0.00 0.00 3 1001.8
20260509225503 89 192 0.0 0.0 0.00 0.00 0.00 3 1001.9
20260509225004 90 192 0.0 0.0 0.00 0.00 0.00 3 1001.8
20260509224004 90 192 0.0 0.0 0.00 0.00 0.00 3 1002.0
20260509223504 90 192 0.0 0.0 0.00 0.00 0.00 3 1001.9
20260509223004 89 192 0.0 0.0 0.00 0.00 0.00 3 1001.9
20260509222504 89 192 0.0 0.0 0.00 0.00 0.00 3 1001.9
20260509222004 89 192 0.0 0.0 0.00 0.00 0.00 3 1001.9
20260509221504 89 192 0.0 0.0 0.00 0.00 0.00 3 1002.0
20260509221003 89 192 0.0 0.0 0.00 0.00 0.00 3 1001.8
20260509220504 89 192 0.0 0.0 0.00 0.00 0.00 3 1002.0
20260509215504 89 192 0.0 0.0 0.00 0.00 0.00 3 1002.0
20260509215004 89 194 0.0 0.0 0.00 0.00 0.00 3 1002.1
20260509214504 89 194 0.0 0.0 0.00 0.00 0.00 3 1002.1
20260509214004 89 194 0.0 0.0 0.00 0.00 0.00 3 1002.1
20260509213504 89 194 0.0 0.0 0.00 0.00 0.00 3 1002.2
20260509213005 88 194 0.0 0.0 0.00 0.00 0.00 3 1002.4
20260509212504 89 194 0.0 0.0 0.00 0.00 0.00 3 1002.3
20260509212004 89 194 0.0 0.0 0.00 0.00 0.00 3 1002.2
20260509211504 89 195 0.0 0.0 0.00 0.00 0.00 3 1002.4
20260509211004 90 195 0.0 0.0 0.00 0.00 0.00 3 1002.5
20260509210503 89 195 0.0 0.0 0.00 0.00 0.00 4 1002.6
20260509210004 89 196 0.0 0.0 0.00 0.00 0.00 4 1002.7
20260509205504 88 196 0.0 0.0 0.00 0.00 0.00 3 1002.7
20260509205005 89 196 0.0 0.0 0.00 0.00 0.00 4 1002.8
20260509204004 88 196 0.0 0.0 0.00 0.00 0.00 5 1002.9
20260509203504 89 196 0.0 0.0 0.00 0.00 0.00 6 1003.1
20260509203004 88 196 0.0 0.0 0.00 0.00 0.00 5 1003.2
20260509202504 88 196 0.0 0.0 0.00 0.00 0.00 5 1003.2
20260509202005 88 196 0.0 0.0 0.00 0.00 0.00 5 1003.3
20260509200004 87 196 0.0 0.0 0.00 0.00 0.00 6 1003.6
20260509195504 87 196 0.0 0.0 0.00 0.00 0.00 7 1003.6
20260509195005 87 196 0.0 0.0 0.00 0.00 0.00 7 1003.7
20260509194504 87 196 0.0 0.0 0.00 0.00 0.00 8 1003.7
20260509194004 87 196 0.0 0.0 0.00 0.00 0.00 7 1003.8
20260509193504 86 196 0.0 0.0 0.00 0.00 0.00 8 1003.9
20260509193004 86 196 0.0 0.0 0.00 0.00 0.00 8 1003.9
20260509192503 86 196 0.0 0.0 0.00 0.00 0.00 9 1004.1
20260509192004 86 196 0.0 0.0 0.00 0.00 0.00 9 1004.2
20260509191504 86 196 0.0 0.0 0.00 0.00 0.00 9 1004.3
20260509191004 85 196 0.0 0.0 0.00 0.00 0.00 10 1004.3
20260509190504 85 196 0.0 0.0 0.00 0.00 0.00 10 1004.5
20260509190004 85 196 0.0 0.0 0.00 0.00 0.00 10 1004.5
20260509185505 85 196 0.0 0.0 0.00 0.00 0.00 9 1004.7
20260509185004 85 196 0.0 0.0 0.00 0.00 0.00 9 1004.7
20260509184004 85 200 0.0 0.0 0.00 0.00 0.00 10 1004.7
20260509183504 85 200 0.0 0.0 0.00 0.00 0.00 11 1004.8
20260509183004 84 200 0.0 0.0 0.00 0.00 0.00 10 1005.0
20260509182504 84 200 0.0 0.0 0.00 0.00 0.00 11 1005.0
20260509181004 84 200 0.0 0.0 0.00 0.00 0.00 13 1005.5
20260509180004 83 200 0.0 0.0 0.00 0.00 0.00 14 1005.7
20260509175503 82 200 0.0 0.0 0.00 0.00 0.00 15 1005.7
20260509175004 82 200 0.0 0.0 0.00 0.00 0.00 14 1005.9
20260509173004 82 200 0.0 0.0 0.00 0.00 0.00 16 1006.1
20260509172504 81 200 0.0 0.0 0.00 0.00 0.00 17 1006.2
20260509172004 81 200 0.0 0.0 0.00 0.00 0.00 18 1006.2
20260509171504 80 200 0.0 0.0 0.00 0.00 0.00 20 1006.4
20260509170504 80 200 0.0 0.0 0.00 0.00 0.00 20 1006.4
20260509165003 79 200 0.0 0.0 0.00 0.00 0.00 20 1006.7